Year,Month,Day,Hour,Minute,Value (Times are PST for windspeed in km/hr)
2019,01,22,00,00,4.40
2019,01,22,00,01,5.90
2019,01,22,00,02,3.70
2019,01,22,00,03,3.60
2019,01,22,00,04,2.70
2019,01,22,00,05,3.40
2019,01,22,00,06,5.30
2019,01,22,00,07,4.60
2019,01,22,00,08,5.90
2019,01,22,00,09,4.30
2019,01,22,00,10,5.60
2019,01,22,00,11,1.60
2019,01,22,00,12,3.40
2019,01,22,00,13,1.70
2019,01,22,00,14,1.80
2019,01,22,00,15,3.90
2019,01,22,00,16,3.70
2019,01,22,00,17,2.70
2019,01,22,00,18,3.00
2019,01,22,00,19,1.60
2019,01,22,00,20,4.90
2019,01,22,00,21,3.00
2019,01,22,00,22,3.70
2019,01,22,00,23,4.40
2019,01,22,00,24,0.80
2019,01,22,00,25,3.60
2019,01,22,00,26,4.20
2019,01,22,00,27,2.90
2019,01,22,00,28,3.40
2019,01,22,00,29,2.00
2019,01,22,00,30,2.90
2019,01,22,00,31,7.80
2019,01,22,00,32,4.00
2019,01,22,00,33,5.20
2019,01,22,00,34,2.20
2019,01,22,00,35,3.00
2019,01,22,00,36,3.00
2019,01,22,00,37,3.60
2019,01,22,00,38,3.70
2019,01,22,00,39,3.30
2019,01,22,00,40,5.00
2019,01,22,00,41,5.10
2019,01,22,00,42,5.10
2019,01,22,00,43,3.60
2019,01,22,00,44,6.60
2019,01,22,00,45,3.30
2019,01,22,00,46,2.80
2019,01,22,00,47,2.60
2019,01,22,00,48,2.30
2019,01,22,00,49,3.90
2019,01,22,00,50,2.30
2019,01,22,00,51,3.90
2019,01,22,00,52,3.10
2019,01,22,00,53,3.20
2019,01,22,00,54,6.10
2019,01,22,00,55,3.40
2019,01,22,00,56,2.10
2019,01,22,00,57,1.90
2019,01,22,00,58,3.50
2019,01,22,00,59,3.40
2019,01,22,01,00,2.50
2019,01,22,01,01,4.60
2019,01,22,01,02,2.50
2019,01,22,01,03,3.30
2019,01,22,01,04,3.30
2019,01,22,01,05,3.10
2019,01,22,01,06,3.60
2019,01,22,01,07,4.30
2019,01,22,01,08,3.20
2019,01,22,01,09,5.20
2019,01,22,01,10,4.20
2019,01,22,01,11,4.90
2019,01,22,01,12,4.80
2019,01,22,01,13,2.10
2019,01,22,01,14,3.90
2019,01,22,01,15,4.70
2019,01,22,01,16,8.20
2019,01,22,01,17,4.10
2019,01,22,01,18,3.50
2019,01,22,01,19,2.80
2019,01,22,01,20,4.30
2019,01,22,01,21,4.70
2019,01,22,01,22,5.10
2019,01,22,01,23,2.60
2019,01,22,01,24,4.00
2019,01,22,01,25,3.60
2019,01,22,01,26,2.50
2019,01,22,01,27,2.50
2019,01,22,01,28,3.70
2019,01,22,01,29,3.00
2019,01,22,01,30,1.80
2019,01,22,01,31,3.90
2019,01,22,01,32,4.20
2019,01,22,01,33,3.30
2019,01,22,01,34,3.60
2019,01,22,01,35,4.50
2019,01,22,01,36,3.00
2019,01,22,01,37,2.60
2019,01,22,01,38,3.50
2019,01,22,01,39,4.20
2019,01,22,01,40,2.60
2019,01,22,01,41,4.30
2019,01,22,01,42,4.80
2019,01,22,01,43,4.40
2019,01,22,01,44,5.10
2019,01,22,01,45,6.90
2019,01,22,01,46,5.50
2019,01,22,01,47,5.30
2019,01,22,01,48,4.10
2019,01,22,01,49,4.30
2019,01,22,01,50,1.90
2019,01,22,01,51,3.20
2019,01,22,01,52,2.90
2019,01,22,01,53,2.20
2019,01,22,01,54,4.20
2019,01,22,01,55,3.30
2019,01,22,01,56,3.60
2019,01,22,01,57,2.00
2019,01,22,01,58,4.00
2019,01,22,01,59,3.80
2019,01,22,02,00,4.50
2019,01,22,02,01,4.00
2019,01,22,02,02,6.50
2019,01,22,02,03,3.90
2019,01,22,02,04,2.30
2019,01,22,02,05,3.90
2019,01,22,02,06,2.90
2019,01,22,02,07,4.20
2019,01,22,02,08,7.40
2019,01,22,02,09,6.70
2019,01,22,02,10,3.30
2019,01,22,02,11,1.70
2019,01,22,02,12,3.20
2019,01,22,02,13,3.80
2019,01,22,02,14,4.90
2019,01,22,02,15,3.80
2019,01,22,02,16,3.70
2019,01,22,02,17,3.30
2019,01,22,02,18,3.30
2019,01,22,02,19,0.70
2019,01,22,02,20,2.10
2019,01,22,02,21,4.00
2019,01,22,02,22,5.40
2019,01,22,02,23,5.10
2019,01,22,02,24,3.60
2019,01,22,02,25,2.80
2019,01,22,02,26,2.90
2019,01,22,02,27,0.80
2019,01,22,02,28,2.90
2019,01,22,02,29,2.60
2019,01,22,02,30,3.30
2019,01,22,02,31,4.10
2019,01,22,02,32,5.10
2019,01,22,02,33,8.00
2019,01,22,02,34,7.30
2019,01,22,02,35,7.20
2019,01,22,02,36,8.80
2019,01,22,02,37,7.50
2019,01,22,02,38,7.10
2019,01,22,02,39,7.50
2019,01,22,02,40,9.50
2019,01,22,02,41,8.50
2019,01,22,02,42,10.80
2019,01,22,02,43,9.20
2019,01,22,02,44,10.20
2019,01,22,02,45,6.40
2019,01,22,02,46,7.90
2019,01,22,02,47,9.20
2019,01,22,02,48,6.70
2019,01,22,02,49,12.40
2019,01,22,02,50,10.90
2019,01,22,02,51,9.70
2019,01,22,02,52,3.80
2019,01,22,02,53,7.40
2019,01,22,02,54,9.90
2019,01,22,02,55,9.90
2019,01,22,02,56,9.20
2019,01,22,02,57,7.10
2019,01,22,02,58,12.70
2019,01,22,02,59,10.90
2019,01,22,03,00,8.90
2019,01,22,03,01,4.20
2019,01,22,03,02,5.30
2019,01,22,03,03,5.00
2019,01,22,03,04,3.60
2019,01,22,03,05,4.50
2019,01,22,03,06,3.50
2019,01,22,03,07,3.90
2019,01,22,03,08,3.30
2019,01,22,03,09,5.10
2019,01,22,03,10,8.20
2019,01,22,03,11,6.60
2019,01,22,03,12,8.20
2019,01,22,03,13,7.70
2019,01,22,03,14,4.50
2019,01,22,03,15,6.90
2019,01,22,03,16,9.80
2019,01,22,03,17,5.10
2019,01,22,03,18,3.90
2019,01,22,03,19,5.10
2019,01,22,03,20,6.30
2019,01,22,03,21,4.10
2019,01,22,03,22,3.30
2019,01,22,03,23,7.50
2019,01,22,03,24,9.60
2019,01,22,03,25,8.90
2019,01,22,03,26,9.10
2019,01,22,03,27,3.50
2019,01,22,03,28,5.50
2019,01,22,03,29,5.40
2019,01,22,03,30,5.20
2019,01,22,03,31,2.60
2019,01,22,03,32,2.60
2019,01,22,03,33,1.90
2019,01,22,03,34,1.40
2019,01,22,03,35,4.40
2019,01,22,03,36,2.70
2019,01,22,03,37,5.40
2019,01,22,03,38,6.60
2019,01,22,03,39,7.30
2019,01,22,03,40,6.60
2019,01,22,03,41,4.90
2019,01,22,03,42,10.80
2019,01,22,03,43,10.20
2019,01,22,03,44,5.00
2019,01,22,03,45,10.70
2019,01,22,03,46,11.40
2019,01,22,03,47,10.40
2019,01,22,03,48,5.70
2019,01,22,03,49,4.90
2019,01,22,03,50,3.50
2019,01,22,03,51,2.00
2019,01,22,03,52,1.00
2019,01,22,03,53,2.50
2019,01,22,03,54,5.20
2019,01,22,03,55,5.50
2019,01,22,03,56,3.10
2019,01,22,03,57,4.50
2019,01,22,03,58,3.40
2019,01,22,03,59,3.20
2019,01,22,04,00,3.90
2019,01,22,04,01,3.80
2019,01,22,04,02,2.40
2019,01,22,04,03,4.00
2019,01,22,04,04,3.60
2019,01,22,04,05,1.60
2019,01,22,04,06,0.40
2019,01,22,04,07,1.10
2019,01,22,04,08,1.00
2019,01,22,04,09,1.40
2019,01,22,04,10,0.90
2019,01,22,04,11,2.10
2019,01,22,04,12,3.60
2019,01,22,04,13,4.00
2019,01,22,04,14,3.00
2019,01,22,04,15,2.10
2019,01,22,04,16,1.30
2019,01,22,04,17,0.80
2019,01,22,04,18,0.50
2019,01,22,04,19,0.30
2019,01,22,04,20,0.50
2019,01,22,04,21,0.90
2019,01,22,04,22,0.00
2019,01,22,04,23,0.20
2019,01,22,04,24,0.00
2019,01,22,04,25,0.60
2019,01,22,04,26,0.40
2019,01,22,04,27,0.30
2019,01,22,04,28,0.50
2019,01,22,04,29,1.20
2019,01,22,04,30,0.60
2019,01,22,04,31,0.10
2019,01,22,04,32,0.40
2019,01,22,04,33,0.60
2019,01,22,04,34,0.20
2019,01,22,04,35,0.80
2019,01,22,04,36,1.60
2019,01,22,04,37,1.20
2019,01,22,04,38,1.40
2019,01,22,04,39,1.60
2019,01,22,04,40,1.50
2019,01,22,04,41,0.10
2019,01,22,04,42,0.40
2019,01,22,04,43,0.80
2019,01,22,04,44,1.40
2019,01,22,04,45,1.10
2019,01,22,04,46,2.00
2019,01,22,04,47,0.80
2019,01,22,04,48,0.10
2019,01,22,04,49,0.20
2019,01,22,04,50,0.30
2019,01,22,04,51,2.40
2019,01,22,04,52,2.10
2019,01,22,04,53,0.50
2019,01,22,04,54,0.50
2019,01,22,04,55,0.40
2019,01,22,04,56,2.90
2019,01,22,04,57,1.70
2019,01,22,04,58,0.80
2019,01,22,04,59,0.00
2019,01,22,05,00,0.00
2019,01,22,05,01,0.80
2019,01,22,05,02,0.60
2019,01,22,05,03,1.40
2019,01,22,05,04,1.90
2019,01,22,05,05,0.60
2019,01,22,05,06,0.30
2019,01,22,05,07,0.00
2019,01,22,05,08,0.10
2019,01,22,05,09,1.50
2019,01,22,05,10,0.70
2019,01,22,05,11,0.80
2019,01,22,05,12,1.00
2019,01,22,05,13,1.00
2019,01,22,05,14,0.20
2019,01,22,05,15,1.00
2019,01,22,05,16,1.10
2019,01,22,05,17,0.60
2019,01,22,05,18,1.00
2019,01,22,05,19,0.80
2019,01,22,05,20,0.20
2019,01,22,05,21,0.20
2019,01,22,05,22,0.10
2019,01,22,05,23,0.80
2019,01,22,05,24,0.90
2019,01,22,05,25,0.40
2019,01,22,05,26,0.80
2019,01,22,05,27,1.10
2019,01,22,05,28,3.00
2019,01,22,05,29,1.70
2019,01,22,05,30,0.30
2019,01,22,05,31,0.00
2019,01,22,05,32,0.60
2019,01,22,05,33,0.40
2019,01,22,05,34,1.20
2019,01,22,05,35,0.30
2019,01,22,05,36,0.80
2019,01,22,05,37,0.10
2019,01,22,05,38,0.00
2019,01,22,05,39,0.20
2019,01,22,05,40,0.20
2019,01,22,05,41,0.10
2019,01,22,05,42,0.00
2019,01,22,05,43,0.00
2019,01,22,05,44,0.60
2019,01,22,05,45,1.10
2019,01,22,05,46,0.80
2019,01,22,05,47,1.30
2019,01,22,05,48,1.20
2019,01,22,05,49,0.20
2019,01,22,05,50,0.20
2019,01,22,05,51,0.10
2019,01,22,05,52,0.40
2019,01,22,05,53,0.00
2019,01,22,05,54,0.00
2019,01,22,05,55,0.20
2019,01,22,05,56,0.40
2019,01,22,05,57,1.20
2019,01,22,05,58,1.60
2019,01,22,05,59,0.50
2019,01,22,06,00,0.20
2019,01,22,06,01,0.10
2019,01,22,06,02,0.10
2019,01,22,06,03,0.10
2019,01,22,06,04,0.30
2019,01,22,06,05,0.10
2019,01,22,06,06,0.20
2019,01,22,06,07,0.20
2019,01,22,06,08,0.00
2019,01,22,06,09,0.00
2019,01,22,06,10,0.80
2019,01,22,06,11,1.10
2019,01,22,06,12,0.30
2019,01,22,06,13,0.10
2019,01,22,06,14,0.20
2019,01,22,06,15,0.10
2019,01,22,06,16,0.10
2019,01,22,06,17,0.50
2019,01,22,06,18,0.60
2019,01,22,06,19,0.10
2019,01,22,06,20,0.20
2019,01,22,06,21,0.20
2019,01,22,06,22,0.60
2019,01,22,06,23,0.80
2019,01,22,06,24,0.10
2019,01,22,06,25,0.10
2019,01,22,06,26,0.50
2019,01,22,06,27,0.10
2019,01,22,06,28,0.30
2019,01,22,06,29,1.20
2019,01,22,06,30,0.60
2019,01,22,06,31,1.00
2019,01,22,06,32,1.00
2019,01,22,06,33,0.90
2019,01,22,06,34,0.20
2019,01,22,06,35,1.00
2019,01,22,06,36,1.40
2019,01,22,06,37,0.20
2019,01,22,06,38,0.80
2019,01,22,06,39,0.30
2019,01,22,06,40,0.90
2019,01,22,06,41,0.80
2019,01,22,06,42,0.20
2019,01,22,06,43,0.30
2019,01,22,06,44,0.00
2019,01,22,06,45,0.00
2019,01,22,06,46,0.10
2019,01,22,06,47,0.00
2019,01,22,06,48,0.30
2019,01,22,06,49,0.10
2019,01,22,06,50,0.20
2019,01,22,06,51,0.00
2019,01,22,06,52,0.00
2019,01,22,06,53,0.00
2019,01,22,06,54,0.00
2019,01,22,06,55,0.20
2019,01,22,06,56,0.10
2019,01,22,06,57,0.10
2019,01,22,06,58,0.10
2019,01,22,06,59,0.10
2019,01,22,07,00,0.10
2019,01,22,07,01,0.50
2019,01,22,07,02,0.20
2019,01,22,07,03,0.90
2019,01,22,07,04,1.00
2019,01,22,07,05,0.10
2019,01,22,07,06,0.70
2019,01,22,07,07,0.40
2019,01,22,07,08,0.20
2019,01,22,07,09,0.00
2019,01,22,07,10,0.00
2019,01,22,07,11,0.00
2019,01,22,07,12,0.00
2019,01,22,07,13,0.00
2019,01,22,07,14,0.00
2019,01,22,07,15,0.00
2019,01,22,07,16,0.00
2019,01,22,07,17,0.00
2019,01,22,07,18,0.30
2019,01,22,07,19,0.20
2019,01,22,07,20,0.30
2019,01,22,07,21,0.00
2019,01,22,07,22,0.00
2019,01,22,07,23,0.20
2019,01,22,07,24,0.60
2019,01,22,07,25,0.00
2019,01,22,07,26,0.10
2019,01,22,07,27,0.10
2019,01,22,07,28,0.10
2019,01,22,07,29,0.00
2019,01,22,07,30,0.00
2019,01,22,07,31,0.10
2019,01,22,07,32,0.60
2019,01,22,07,33,0.50
2019,01,22,07,34,0.40
2019,01,22,07,35,0.40
2019,01,22,07,36,0.00
2019,01,22,07,37,0.40
2019,01,22,07,38,1.70
2019,01,22,07,39,1.00
2019,01,22,07,40,0.30
2019,01,22,07,41,0.80
2019,01,22,07,42,0.70
2019,01,22,07,43,0.50
2019,01,22,07,44,1.30
2019,01,22,07,45,2.80
2019,01,22,07,46,2.20
2019,01,22,07,47,1.30
2019,01,22,07,48,1.30
2019,01,22,07,49,2.60
2019,01,22,07,50,2.90
2019,01,22,07,51,0.60
2019,01,22,07,52,2.90
2019,01,22,07,53,1.70
2019,01,22,07,54,1.30
2019,01,22,07,55,0.80
2019,01,22,07,56,0.80
2019,01,22,07,57,0.40
2019,01,22,07,58,1.60
2019,01,22,07,59,1.40
2019,01,22,08,00,2.10
2019,01,22,08,01,0.20
2019,01,22,08,02,0.20
2019,01,22,08,03,0.30
2019,01,22,08,04,0.70
2019,01,22,08,05,0.00
2019,01,22,08,06,0.10
2019,01,22,08,07,0.10
2019,01,22,08,08,0.10
2019,01,22,08,09,0.20
2019,01,22,08,10,0.00
2019,01,22,08,11,0.10
2019,01,22,08,12,0.10
2019,01,22,08,13,0.00
2019,01,22,08,14,0.00
2019,01,22,08,15,0.00
2019,01,22,08,16,0.00
2019,01,22,08,17,0.00
2019,01,22,08,18,0.10
2019,01,22,08,19,1.70
2019,01,22,08,20,2.40
2019,01,22,08,21,0.40
2019,01,22,08,22,0.80
2019,01,22,08,23,1.80
2019,01,22,08,24,1.30
2019,01,22,08,25,0.50
2019,01,22,08,26,2.30
2019,01,22,08,27,4.40
2019,01,22,08,28,4.10
2019,01,22,08,29,2.20
2019,01,22,08,30,1.10
2019,01,22,08,31,0.30
2019,01,22,08,32,2.00
2019,01,22,08,33,0.90
2019,01,22,08,34,2.00
2019,01,22,08,35,3.10
2019,01,22,08,36,1.70
2019,01,22,08,37,1.40
2019,01,22,08,38,2.00
2019,01,22,08,39,3.50
2019,01,22,08,40,2.50
2019,01,22,08,41,2.40
2019,01,22,08,42,1.40
2019,01,22,08,43,1.30
2019,01,22,08,44,0.50
2019,01,22,08,45,3.60
2019,01,22,08,46,3.60
2019,01,22,08,47,2.20
2019,01,22,08,48,1.70
2019,01,22,08,49,1.80
2019,01,22,08,50,1.50
2019,01,22,08,51,1.40
2019,01,22,08,52,1.20
2019,01,22,08,53,2.40
2019,01,22,08,54,3.90
2019,01,22,08,55,5.70
2019,01,22,08,56,2.10
2019,01,22,08,57,4.70
2019,01,22,08,58,3.30
2019,01,22,08,59,3.80
2019,01,22,09,00,3.60
2019,01,22,09,01,3.40
2019,01,22,09,02,3.20
2019,01,22,09,03,3.80
2019,01,22,09,04,2.10
2019,01,22,09,05,2.10
2019,01,22,09,06,3.00
2019,01,22,09,07,2.40
2019,01,22,09,08,3.90
2019,01,22,09,09,4.50
2019,01,22,09,10,4.10
2019,01,22,09,11,4.80
2019,01,22,09,12,4.60
2019,01,22,09,13,4.10
2019,01,22,09,14,2.00
2019,01,22,09,15,2.60
2019,01,22,09,16,2.10
2019,01,22,09,17,2.80
2019,01,22,09,18,4.30
2019,01,22,09,19,8.20
2019,01,22,09,20,7.70
2019,01,22,09,21,9.30
2019,01,22,09,22,8.00
2019,01,22,09,23,5.90
2019,01,22,09,24,3.40
2019,01,22,09,25,6.20
2019,01,22,09,26,8.20
2019,01,22,09,27,5.30
2019,01,22,09,28,6.00
2019,01,22,09,29,4.90
2019,01,22,09,30,4.50
2019,01,22,09,31,2.00
2019,01,22,09,32,3.20
2019,01,22,09,33,4.90
2019,01,22,09,34,2.20
2019,01,22,09,35,2.50
2019,01,22,09,36,2.40
2019,01,22,09,37,4.20
2019,01,22,09,38,5.00
2019,01,22,09,39,7.60
2019,01,22,09,40,6.00
2019,01,22,09,41,4.90
2019,01,22,09,42,2.80
2019,01,22,09,43,4.80
2019,01,22,09,44,2.90
2019,01,22,09,45,4.70
2019,01,22,09,46,4.30
2019,01,22,09,47,3.20
2019,01,22,09,48,3.50
2019,01,22,09,49,3.20
2019,01,22,09,50,3.60
2019,01,22,09,51,2.60
2019,01,22,09,52,4.00
2019,01,22,09,53,4.00
2019,01,22,09,54,1.70
2019,01,22,09,55,1.80
2019,01,22,09,56,1.80
2019,01,22,09,57,1.30
2019,01,22,09,58,1.60
2019,01,22,09,59,2.00
2019,01,22,10,00,2.00
2019,01,22,10,01,5.30
2019,01,22,10,02,4.00
2019,01,22,10,03,2.30
2019,01,22,10,04,2.70
2019,01,22,10,05,1.40
2019,01,22,10,06,2.60
2019,01,22,10,07,4.20
2019,01,22,10,08,1.60
2019,01,22,10,09,0.20
2019,01,22,10,10,0.00
2019,01,22,10,11,0.00
2019,01,22,10,12,0.00
2019,01,22,10,13,0.00
2019,01,22,10,14,0.00
2019,01,22,10,15,0.60
2019,01,22,10,16,1.60
2019,01,22,10,17,1.60
2019,01,22,10,18,2.70
2019,01,22,10,19,2.50
2019,01,22,10,20,3.50
2019,01,22,10,21,5.20
2019,01,22,10,22,4.50
2019,01,22,10,23,6.20
2019,01,22,10,24,10.60
2019,01,22,10,25,5.20
2019,01,22,10,26,10.70
2019,01,22,10,27,8.00
2019,01,22,10,28,5.20
2019,01,22,10,29,7.00
2019,01,22,10,30,7.80
2019,01,22,10,31,3.90
2019,01,22,10,32,2.40
2019,01,22,10,33,3.90
2019,01,22,10,34,3.90
2019,01,22,10,35,7.10
2019,01,22,10,36,5.70
2019,01,22,10,37,4.40
2019,01,22,10,38,5.30
2019,01,22,10,39,4.60
2019,01,22,10,40,2.90
2019,01,22,10,41,2.90
2019,01,22,10,42,6.30
2019,01,22,10,43,2.60
2019,01,22,10,44,2.00
2019,01,22,10,45,3.90
2019,01,22,10,46,3.80
2019,01,22,10,47,5.70
2019,01,22,10,48,7.60
2019,01,22,10,49,6.40
2019,01,22,10,50,5.20
2019,01,22,10,51,4.00
2019,01,22,10,52,1.80
2019,01,22,10,53,3.50
2019,01,22,10,54,3.30
2019,01,22,10,55,5.70
2019,01,22,10,56,4.10
2019,01,22,10,57,5.30
2019,01,22,10,58,4.80
2019,01,22,10,59,4.50
2019,01,22,11,00,3.60
2019,01,22,11,01,2.40
2019,01,22,11,02,5.70
2019,01,22,11,03,2.80
2019,01,22,11,04,4.20
2019,01,22,11,05,3.10
2019,01,22,11,06,5.40
2019,01,22,11,07,9.40
2019,01,22,11,08,10.70
2019,01,22,11,09,10.40
2019,01,22,11,10,13.90
2019,01,22,11,11,15.30
2019,01,22,11,12,12.80
2019,01,22,11,13,11.90
2019,01,22,11,14,11.30
2019,01,22,11,15,10.00
2019,01,22,11,16,10.10
2019,01,22,11,17,8.00
2019,01,22,11,18,8.40
2019,01,22,11,19,12.40
2019,01,22,11,20,9.30
2019,01,22,11,21,12.60
2019,01,22,11,22,13.60
2019,01,22,11,23,12.00
2019,01,22,11,24,10.30
2019,01,22,11,25,11.00
2019,01,22,11,26,7.10
2019,01,22,11,27,6.20
2019,01,22,11,28,6.70
2019,01,22,11,29,8.70
2019,01,22,11,30,6.60
2019,01,22,11,31,7.90
2019,01,22,11,32,5.50
2019,01,22,11,33,12.00
2019,01,22,11,34,10.80
2019,01,22,11,35,10.60
2019,01,22,11,36,13.00
2019,01,22,11,37,10.60
2019,01,22,11,38,11.70
2019,01,22,11,39,12.80
2019,01,22,11,40,11.30
2019,01,22,11,41,12.00
2019,01,22,11,42,10.30
2019,01,22,11,43,9.70
2019,01,22,11,44,12.00
2019,01,22,11,45,12.80
2019,01,22,11,46,10.40
2019,01,22,11,47,14.10
2019,01,22,11,48,11.70
2019,01,22,11,49,12.30
2019,01,22,11,50,9.70
2019,01,22,11,51,10.90
2019,01,22,11,52,11.70
2019,01,22,11,53,10.60
2019,01,22,11,54,12.10
2019,01,22,11,55,13.80
2019,01,22,11,56,12.10
2019,01,22,11,57,13.20
2019,01,22,11,58,13.30
2019,01,22,11,59,12.60
2019,01,22,12,00,12.50
2019,01,22,12,01,11.90
2019,01,22,12,02,11.50
2019,01,22,12,03,12.00
2019,01,22,12,04,13.00
2019,01,22,12,05,11.30
2019,01,22,12,06,10.40
2019,01,22,12,07,11.70
2019,01,22,12,08,10.90
2019,01,22,12,09,10.50
2019,01,22,12,10,10.90
2019,01,22,12,11,9.30
2019,01,22,12,12,9.40
2019,01,22,12,13,10.20
2019,01,22,12,14,11.10
2019,01,22,12,15,12.50
2019,01,22,12,16,13.70
2019,01,22,12,17,12.20
2019,01,22,12,18,9.90
2019,01,22,12,19,10.80
2019,01,22,12,20,12.60
2019,01,22,12,21,12.10
2019,01,22,12,22,10.90
2019,01,22,12,23,13.10
2019,01,22,12,24,11.60
2019,01,22,12,25,12.60
2019,01,22,12,26,12.60
2019,01,22,12,27,11.40
2019,01,22,12,28,9.40
2019,01,22,12,29,13.40
2019,01,22,12,30,9.30
2019,01,22,12,31,10.30
2019,01,22,12,32,11.70
2019,01,22,12,33,8.30
2019,01,22,12,34,10.90
2019,01,22,12,35,11.70
2019,01,22,12,36,12.80
2019,01,22,12,37,9.90
2019,01,22,12,38,11.70
2019,01,22,12,39,9.70
2019,01,22,12,40,7.40
2019,01,22,12,41,7.20
2019,01,22,12,42,8.30
2019,01,22,12,43,8.70
2019,01,22,12,44,7.00
2019,01,22,12,45,5.60
2019,01,22,12,46,7.20
2019,01,22,12,47,4.40
2019,01,22,12,48,6.60
2019,01,22,12,49,8.60
2019,01,22,12,50,11.80
2019,01,22,12,51,9.90
2019,01,22,12,52,7.20
2019,01,22,12,53,4.20
2019,01,22,12,54,3.70
2019,01,22,12,55,6.20
2019,01,22,12,56,6.80
2019,01,22,12,57,3.90
2019,01,22,12,58,4.60
2019,01,22,12,59,6.10
2019,01,22,13,00,6.80
2019,01,22,13,01,6.60
2019,01,22,13,02,4.80
2019,01,22,13,03,8.40
2019,01,22,13,04,8.70
2019,01,22,13,05,8.80
2019,01,22,13,06,12.20
2019,01,22,13,07,11.70
2019,01,22,13,08,13.40
2019,01,22,13,09,13.00
2019,01,22,13,10,13.30
2019,01,22,13,11,13.40
2019,01,22,13,12,14.10
2019,01,22,13,13,15.60
2019,01,22,13,14,16.30
2019,01,22,13,15,13.90
2019,01,22,13,16,14.20
2019,01,22,13,17,12.90
2019,01,22,13,18,15.10
2019,01,22,13,19,13.90
2019,01,22,13,20,11.90
2019,01,22,13,21,11.70
2019,01,22,13,22,13.30
2019,01,22,13,23,11.90
2019,01,22,13,24,11.60
2019,01,22,13,25,13.10
2019,01,22,13,26,14.60
2019,01,22,13,27,13.90
2019,01,22,13,28,11.70
2019,01,22,13,29,13.20
2019,01,22,13,30,13.10
2019,01,22,13,31,13.00
2019,01,22,13,32,12.30
2019,01,22,13,33,14.10
2019,01,22,13,34,13.50
2019,01,22,13,35,11.10
2019,01,22,13,36,11.70
2019,01,22,13,37,12.80
2019,01,22,13,38,13.00
2019,01,22,13,39,13.00
2019,01,22,13,40,9.30
2019,01,22,13,41,12.80
2019,01,22,13,42,10.70
2019,01,22,13,43,10.10
2019,01,22,13,44,12.80
2019,01,22,13,45,10.70
2019,01,22,13,46,9.10
2019,01,22,13,47,10.00
2019,01,22,13,48,11.10
2019,01,22,13,49,8.70
2019,01,22,13,50,8.00
2019,01,22,13,51,9.50
2019,01,22,13,52,10.80
2019,01,22,13,53,11.80
2019,01,22,13,54,10.80
2019,01,22,13,55,8.40
2019,01,22,13,56,5.50
2019,01,22,13,57,5.30
2019,01,22,13,58,5.10
2019,01,22,13,59,10.10
2019,01,22,14,00,10.80
2019,01,22,14,01,9.70
2019,01,22,14,02,6.30
2019,01,22,14,03,8.00
2019,01,22,14,04,8.50
2019,01,22,14,05,8.70
2019,01,22,14,06,7.00
2019,01,22,14,07,7.70
2019,01,22,14,08,10.30
2019,01,22,14,09,9.80
2019,01,22,14,10,11.80
2019,01,22,14,11,13.80
2019,01,22,14,12,11.00
2019,01,22,14,13,10.70
2019,01,22,14,14,9.40
2019,01,22,14,15,6.50
2019,01,22,14,16,11.20
2019,01,22,14,17,8.70
2019,01,22,14,18,11.60
2019,01,22,14,19,11.10
2019,01,22,14,20,12.50
2019,01,22,14,21,10.00
2019,01,22,14,22,10.90
2019,01,22,14,23,8.10
2019,01,22,14,24,11.80
2019,01,22,14,25,2.70
2019,01,22,14,26,3.40
2019,01,22,14,27,3.00
2019,01,22,14,28,5.50
2019,01,22,14,29,3.50
2019,01,22,14,30,1.00
2019,01,22,14,31,2.10
2019,01,22,14,32,3.90
2019,01,22,14,33,3.30
2019,01,22,14,34,5.60
2019,01,22,14,35,6.70
2019,01,22,14,36,2.70
2019,01,22,14,37,3.00
2019,01,22,14,38,3.90
2019,01,22,14,39,2.80
2019,01,22,14,40,3.80
2019,01,22,14,41,2.60
2019,01,22,14,42,3.80
2019,01,22,14,43,6.10
2019,01,22,14,44,2.20
2019,01,22,14,45,1.20
2019,01,22,14,46,2.80
2019,01,22,14,47,1.00
2019,01,22,14,48,2.10
2019,01,22,14,49,2.40
2019,01,22,14,50,1.60
2019,01,22,14,51,2.20
2019,01,22,14,52,2.50
2019,01,22,14,53,0.80
2019,01,22,14,54,1.40
2019,01,22,14,55,2.70
2019,01,22,14,56,1.70
2019,01,22,14,57,0.90
2019,01,22,14,58,2.30
2019,01,22,14,59,2.40
2019,01,22,15,00,2.10
2019,01,22,15,01,1.10
2019,01,22,15,02,2.60
2019,01,22,15,03,1.30
2019,01,22,15,04,0.10
2019,01,22,15,05,0.20
2019,01,22,15,06,0.40
2019,01,22,15,07,0.40
2019,01,22,15,08,1.50
2019,01,22,15,09,1.40
2019,01,22,15,10,2.00
2019,01,22,15,11,1.60
2019,01,22,15,12,2.00
2019,01,22,15,13,2.30
2019,01,22,15,14,2.50
2019,01,22,15,15,0.30
2019,01,22,15,16,0.40
2019,01,22,15,17,0.40
2019,01,22,15,18,1.70
2019,01,22,15,19,2.30
2019,01,22,15,20,2.50
2019,01,22,15,21,0.40
2019,01,22,15,22,0.30
2019,01,22,15,23,0.10
2019,01,22,15,24,0.50
2019,01,22,15,25,1.50
2019,01,22,15,26,1.10
2019,01,22,15,27,1.00
2019,01,22,15,28,1.20
2019,01,22,15,29,1.20
2019,01,22,15,30,1.00
2019,01,22,15,31,0.10
2019,01,22,15,32,1.60
2019,01,22,15,33,1.10
2019,01,22,15,34,1.10
2019,01,22,15,35,1.40
2019,01,22,15,36,0.80
2019,01,22,15,37,0.20
2019,01,22,15,38,0.80
2019,01,22,15,39,1.80
2019,01,22,15,40,0.60
2019,01,22,15,41,0.00
2019,01,22,15,42,1.50
2019,01,22,15,43,1.60
2019,01,22,15,44,1.60
2019,01,22,15,45,3.00
2019,01,22,15,46,3.00
2019,01,22,15,47,3.80
2019,01,22,15,48,1.70
2019,01,22,15,49,1.20
2019,01,22,15,50,0.70
2019,01,22,15,51,0.80
2019,01,22,15,52,0.20
2019,01,22,15,53,1.30
2019,01,22,15,54,3.40
2019,01,22,15,55,2.90
2019,01,22,15,56,6.40
2019,01,22,15,57,7.90
2019,01,22,15,58,2.60
2019,01,22,15,59,0.30
2019,01,22,16,00,3.20
2019,01,22,16,01,3.90
2019,01,22,16,02,3.40
2019,01,22,16,03,3.70
2019,01,22,16,04,1.80
2019,01,22,16,05,1.30
2019,01,22,16,06,0.40
2019,01,22,16,07,2.90
2019,01,22,16,08,5.20
2019,01,22,16,09,5.20
2019,01,22,16,10,7.80
2019,01,22,16,11,6.80
2019,01,22,16,12,5.30
2019,01,22,16,13,4.30
2019,01,22,16,14,3.70
2019,01,22,16,15,4.90
2019,01,22,16,16,5.20
2019,01,22,16,17,7.60
2019,01,22,16,18,6.10
2019,01,22,16,19,6.40
2019,01,22,16,20,6.60
2019,01,22,16,21,9.60
2019,01,22,16,22,9.90
2019,01,22,16,23,7.30
2019,01,22,16,24,8.70
2019,01,22,16,25,7.00
2019,01,22,16,26,10.00
2019,01,22,16,27,10.50
2019,01,22,16,28,11.20
2019,01,22,16,29,10.70
2019,01,22,16,30,11.30
2019,01,22,16,31,10.60
2019,01,22,16,32,9.00
2019,01,22,16,33,8.80
2019,01,22,16,34,8.80
2019,01,22,16,35,11.50
2019,01,22,16,36,12.20
2019,01,22,16,37,8.00
2019,01,22,16,38,12.30
2019,01,22,16,39,10.30
2019,01,22,16,40,9.30
2019,01,22,16,41,11.70
2019,01,22,16,42,9.00
2019,01,22,16,43,6.30
2019,01,22,16,44,9.50
2019,01,22,16,45,12.00
2019,01,22,16,46,9.40
2019,01,22,16,47,9.80
2019,01,22,16,48,8.30
2019,01,22,16,49,7.10
2019,01,22,16,50,3.60
2019,01,22,16,51,7.90
2019,01,22,16,52,3.70
2019,01,22,16,53,5.00
2019,01,22,16,54,2.50
2019,01,22,16,55,5.10
2019,01,22,16,56,7.40
2019,01,22,16,57,10.10
2019,01,22,16,58,10.00
2019,01,22,16,59,8.00
2019,01,22,17,00,6.40
2019,01,22,17,01,9.30
2019,01,22,17,02,9.50
2019,01,22,17,03,9.90
2019,01,22,17,04,9.50
2019,01,22,17,05,9.80
2019,01,22,17,06,12.00
2019,01,22,17,07,14.20
2019,01,22,17,08,9.50
2019,01,22,17,09,12.40
2019,01,22,17,10,14.10
2019,01,22,17,11,12.90
2019,01,22,17,12,12.30
2019,01,22,17,13,13.40
2019,01,22,17,14,11.90
2019,01,22,17,15,14.40
2019,01,22,17,16,15.20
2019,01,22,17,17,15.60
2019,01,22,17,18,16.20
2019,01,22,17,19,14.50
2019,01,22,17,20,15.20
2019,01,22,17,21,16.60
2019,01,22,17,22,18.30
2019,01,22,17,23,17.10
2019,01,22,17,24,16.80
2019,01,22,17,25,16.30
2019,01,22,17,26,15.60
2019,01,22,17,27,14.20
2019,01,22,17,28,15.40
2019,01,22,17,29,17.30
2019,01,22,17,30,18.10
2019,01,22,17,31,14.70
2019,01,22,17,32,14.80
2019,01,22,17,33,14.50
2019,01,22,17,34,12.30
2019,01,22,17,35,7.10
2019,01,22,17,36,6.80
2019,01,22,17,37,9.50
2019,01,22,17,38,14.00
2019,01,22,17,39,10.80
2019,01,22,17,40,9.10
2019,01,22,17,41,8.10
2019,01,22,17,42,9.10
2019,01,22,17,43,10.30
2019,01,22,17,44,7.20
2019,01,22,17,45,10.00
2019,01,22,17,46,12.50
2019,01,22,17,47,10.30
2019,01,22,17,48,12.80
2019,01,22,17,49,11.50
2019,01,22,17,50,11.60
2019,01,22,17,51,11.00
2019,01,22,17,52,15.10
2019,01,22,17,53,14.00
2019,01,22,17,54,12.20
2019,01,22,17,55,8.50
2019,01,22,17,56,9.70
2019,01,22,17,57,12.50